Weather History for KVCT - September, 2013

Change the Weather History Date:

Sunday, September 8, 2013

  Actual Average Record
Temperature  
Mean Temperature 81 °F 82 °F  
Max Temperature 87 °F 92 °F 102 °F (1940)
Min Temperature 75 °F 71 °F 58 °F (1918)
Degree Days  
Heating Degree Days 0 0  
Month to date heating degree days 0 0  
Since 1 July heating degree days 0 0  
Cooling Degree Days 16 17  
Month to date cooling degree days 166 139  
Year to date cooling degree days 2660 2492  
Growing Degree Days 31 (Base 50)    
Moisture  
Dew Point 75 °F    
Average Humidity 85    
Maximum Humidity 100    
Minimum Humidity 70    
Precipitation  
Precipitation 0.62 in 0.15 in 2.86 in (2010)
Month to date precipitation 1.14 1.20  
Year to date precipitation 16.06 28.07  
Snow  
Snow 0.00 in - - ()
Month to date snowfall 0.0  
Since 1 July snowfall 0.0  
Since 1 September snowfall 0.0  
Snow Depth 0.00 in    
Sea Level Pressure  
Sea Level Pressure 29.94 in    
Wind  
Wind Speed 5 mph (East)    
Max Wind Speed 31 mph    
Max Gust Speed 38 mph    
Visibility 8 miles    
Events Rain    
T = Trace of Precipitation, MM = Missing Value Source: NWS Daily Summary

Daily Weather History Graph

Daily Weather History Graph

Search for Another Location

Airport or City:

Trip Planner

Search our weather history database for the weather conditions in past years. The results will help you decide how hot, cold, wet, or windy it might be!

Date:

Astronomy

Sep. 08, 2013 Rise Set
Actual Time 7:09 AM CDT 7:40 PM CDT
Civil Twilight 6:45 AM CDT 8:04 PM CDT
Nautical Twilight 6:17 AM CDT 8:32 PM CDT
Astronomical Twilight 5:49 AM CDT 9:00 PM CDT
Moon 10:08 AM CDT (9/8) 9:38 PM CDT (9/8)
Length of Visible Light 13h 19m
Length of Day
12h 31m
Waxing Crescent, 11% of the Moon is Illuminated
Sep 8
Waxing Crescent
Sep 12
First Quarter
Sep 19
Full
Sep 26
Last Quarter
Oct 4
New

Hourly Weather History & Observations

Time (CDT) Temp. Heat Index Dew Point Humidity Pressure Visibility Wind Dir Wind Speed Gust Speed Precip Events Conditions
12:51 AM 78.1 °F - 75.0 °F 90% 29.95 in 10.0 mi East 3.5 mph - N/A   Overcast
1:51 AM 77.0 °F - 75.0 °F 94% 29.94 in 10.0 mi NNE 3.5 mph - N/A   Partly Cloudy
2:51 AM 75.9 °F - 75.0 °F 97% 29.90 in 10.0 mi WSW 5.8 mph - N/A   Clear
3:51 AM 75.9 °F - 75.0 °F 97% 29.92 in 9.0 mi Calm Calm - N/A   Clear
4:51 AM 75.9 °F - 75.0 °F 97% 29.93 in 8.0 mi NNE 5.8 mph - N/A   Clear
5:16 AM 75.2 °F - 75.2 °F 100% 29.93 in 8.0 mi NNE 6.9 mph - N/A   Mostly Cloudy
5:30 AM 75.2 °F - 75.2 °F 100% 29.93 in 9.0 mi North 4.6 mph - N/A   Mostly Cloudy
5:51 AM 75.9 °F - 75.0 °F 97% 29.93 in 8.0 mi NE 4.6 mph - N/A   Partly Cloudy
6:51 AM 75.0 °F - 73.9 °F 96% 29.95 in 8.0 mi Calm Calm - N/A   Scattered Clouds
7:04 AM 75.2 °F - 73.4 °F 94% 29.95 in 8.0 mi Calm Calm - N/A   Scattered Clouds
7:19 AM 75.2 °F - 75.2 °F 100% 29.95 in 7.0 mi Calm Calm - N/A   Mostly Cloudy
7:29 AM 75.2 °F - 75.2 °F 100% 29.95 in 7.0 mi Calm Calm - N/A   Scattered Clouds
7:51 AM 75.9 °F - 75.0 °F 97% 29.95 in 6.0 mi NNW 3.5 mph - N/A   Partly Cloudy
8:51 AM 77.0 °F - 75.9 °F 96% 29.96 in 6.0 mi Calm Calm - N/A   Mostly Cloudy
9:00 AM 77.0 °F - 75.2 °F 94% 29.97 in 6.0 mi Calm Calm - N/A   Mostly Cloudy
9:30 AM 77.0 °F - 75.2 °F 94% 29.98 in 1.8 mi ESE 3.5 mph - 0.03 in Rain Rain
9:41 AM 75.2 °F - 75.2 °F 100% 29.98 in 1.0 mi ESE 6.9 mph - 0.12 in Rain Heavy Rain
9:51 AM 77.0 °F - 75.0 °F 94% 29.97 in 1.8 mi SE 4.6 mph - 0.21 in Rain Heavy Rain
9:59 AM 77.0 °F - 75.2 °F 94% 29.98 in 2.5 mi SE 5.8 mph - 0.01 in Rain Rain
10:09 AM 77.0 °F - 75.2 °F 94% 29.98 in 4.0 mi East 3.5 mph - 0.02 in Rain Light Rain
10:51 AM 78.1 °F - 75.9 °F 93% 29.97 in 7.0 mi Calm Calm - 0.04 in Rain Light Rain
11:51 AM 86.0 °F 98.3 °F 78.1 °F 77% 29.96 in 10.0 mi East 5.8 mph - 0.01 in   Partly Cloudy
12:51 PM 82.9 °F 88.8 °F 73.0 °F 72% 29.96 in 10.0 mi NE 13.8 mph 19.6 mph N/A   Mostly Cloudy
1:51 PM 82.0 °F 89.4 °F 75.9 °F 82% 29.94 in 10.0 mi NE 4.6 mph - N/A   Clear
2:51 PM 86.0 °F 96.0 °F 75.9 °F 72% 29.89 in 10.0 mi NNE 8.1 mph - N/A   Scattered Clouds
3:51 PM 84.9 °F 94.1 °F 75.9 °F 74% 29.91 in 9.0 mi ESE 13.8 mph 29.9 mph N/A   Partly Cloudy
3:55 PM 80.6 °F 85.4 °F 73.4 °F 79% 29.93 in 1.5 mi ESE 24.2 mph 38.0 mph 0.00 in Rain Rain
3:57 PM 78.8 °F - 71.6 °F 78% 29.92 in 0.8 mi SSE 23.0 mph 38.0 mph 0.03 in Rain Heavy Rain
4:09 PM 78.8 °F - 69.8 °F 74% 29.90 in 1.5 mi SW 5.8 mph 19.6 mph 0.33 in Rain Light Rain
4:11 PM 78.8 °F - 69.8 °F 74% 29.90 in 3.0 mi SW 3.5 mph - 0.33 in Rain Light Rain
4:22 PM 78.8 °F - 73.4 °F 83% 29.89 in 10.0 mi Calm Calm - 0.34 in Rain Light Rain
4:51 PM 82.9 °F 91.8 °F 77.0 °F 82% 29.89 in 10.0 mi SE 6.9 mph - 0.34 in   Scattered Clouds
5:51 PM 82.9 °F 89.4 °F 73.9 °F 74% 29.90 in 10.0 mi SE 9.2 mph - N/A   Clear
6:51 PM 80.1 °F 85.4 °F 75.9 °F 87% 29.90 in 10.0 mi SE 9.2 mph - 0.01 in   Partly Cloudy
7:51 PM 79.0 °F - 73.9 °F 84% 29.91 in 10.0 mi SE 9.2 mph - N/A   Clear
8:51 PM 78.1 °F - 73.9 °F 87% 29.92 in 10.0 mi Calm Calm - N/A   Clear
9:51 PM 77.0 °F - 75.0 °F 94% 29.93 in 10.0 mi North 3.5 mph - N/A   Partly Cloudy
10:40 PM 75.2 °F - 73.4 °F 94% 29.93 in 7.0 mi ENE 3.5 mph - 0.01 in Rain Light Rain
10:51 PM 75.9 °F - 73.9 °F 94% 29.93 in 10.0 mi ENE 5.8 mph - 0.01 in   Partly Cloudy
11:51 PM 75.0 °F - 73.0 °F 94% 29.92 in 10.0 mi Calm Calm - N/A   Clear